Theta_e
339 341 342 343 343 340 341 340 339 339 340 339 339 339 340 341 340 339 339 340 341 342 341 338 338 337 338 338 337 336 336 337 336 336 336 336 335 336 336 337 337 337 336 335 335 334 333 331 330 328 326 323
336 338 339 339 340 340 339 340 340 340 339 339 338 337 337 338 339 340 339 339 339 340 340 339 339 338 337 337 336 335 335 335 336 335 335 335 334 335 335 336 336 336 335 335 334 333 331 330 328 327 326 321
332 333 335 337 338 339 339 340 339 338 335 336 335 334 333 333 334 334 335 336 336 335 335 335 337 337 337 336 336 336 335 335 335 334 334 334 334 334 335 335 335 334 334 334 333 332 329 325 324 324 324 320
330 330 329 333 335 336 337 337 336 334 332 331 328 328 329 328 327 326 326 325 327 331 332 331 329 335 336 335 335 335 335 334 334 334 334 333 334 335 335 335 334 334 334 334 332 330 327 320 321 321 319 320
330 328 327 328 329 331 332 332 333 332 325 324 323 323 324 324 324 323 324 323 322 324 323 325 327 334 335 335 334 334 334 335 334 334 334 334 333 334 332 329 328 326 330 331 331 330 325 320 319 318 319 318
328 327 326 326 325 325 327 327 326 325 323 328 320 321 322 319 320 322 321 322 327 320 321 321 322 327 333 334 333 334 333 333 333 333 334 333 333 333 331 323 314 316 318 322 325 322 315 315 316 317 318 318
329 329 327 326 324 324 324 326 325 323 323 320 320 319 320 320 318 319 320 321 321 320 319 320 321 325 329 332 331 333 334 333 333 333 332 332 331 330 326 318 316 316 316 316 318 315 314 315 316 317 317 316
329 329 327 326 325 324 323 323 323 321 321 320 320 322 322 321 319 319 318 326 326 325 318 318 322 324 326 327 326 327 328 331 332 332 332 330 328 319 313 312 315 315 315 316 316 315 314 314 315 315 314 314
329 328 327 326 325 324 323 323 323 323 322 321 322 321 322 320 319 320 318 319 318 317 317 315 316 317 317 317 318 321 318 318 319 318 314 312 312 311 311 313 314 313 314 313 312 311 312 314 312 311 311 312
329 329 327 327 326 325 325 324 323 323 324 323 323 321 320 320 320 320 320 317 317 316 317 316 316 317 316 314 317 318 318 316 316 316 314 311 312 313 312 312 312 311 311 312 311 312 310 311 311 312 310 310
328 329 328 328 327 326 325 323 324 324 323 324 323 321 320 321 319 319 319 318 317 317 318 318 316 316 316 318 316 317 317 317 316 315 314 314 316 312 311 312 310 310 311 311 312 311 310 310 311 312 313 312
328 329 328 327 327 327 325 324 324 325 325 325 324 322 321 321 321 320 318 318 318 318 317 318 318 317 316 318 316 316 317 318 315 314 315 314 313 314 311 310 311 310 311 310 310 311 311 310 312 313 312 313
328 328 328 327 326 326 325 325 324 326 325 324 323 323 322 320 319 318 319 317 318 317 319 318 318 316 318 318 319 316 315 316 315 315 314 314 315 314 315 311 312 310 311 310 310 310 312 311 311 312 314 314
327 327 327 327 327 326 324 325 324 324 323 325 324 324 322 321 320 320 319 319 318 317 318 319 318 317 318 318 319 316 316 315 314 315 312 311 310 311 312 311 313 310 312 313 312 310 312 312 313 313 312 314
327 326 327 327 327 326 325 326 325 324 325 323 324 325 323 322 320 320 319 319 318 318 318 318 318 317 318 318 318 317 318 314 316 315 314 315 313 312 311 313 311 310 313 312 312 311 310 313 312 312 313 312
326 326 326 326 327 326 326 325 324 324 324 322 324 323 322 322 320 319 318 319 319 319 318 317 316 316 316 318 316 316 317 314 315 315 313 311 311 310 310 311 309 308 309 311 312 309 311 312 312 312 312 312
327 326 326 326 326 326 326 325 325 323 323 324 324 322 322 322 321 319 320 316 319 318 317 316 316 316 316 317 316 315 315 313 312 311 310 309 309 310 310 309 312 309 307 307 311 310 311 310 311 312 312 313
326 326 326 326 326 326 326 325 324 324 322 322 323 323 322 322 321 320 319 317 315 315 315 314 314 315 316 316 314 313 313 313 311 311 310 309 310 313 313 314 314 312 312 311 308 309 311 309 311 311 311 312
327 326 326 326 326 326 326 326 325 324 324 322 322 323 321 322 321 319 319 317 316 315 315 315 314 314 317 316 314 314 312 314 311 310 312 310 313 314 313 313 313 312 312 310 311 311 311 311 311 310 311 311
328 327 326 326 324 326 326 325 326 327 327 326 321 322 322 321 320 320 318 318 318 317 315 316 316 315 315 314 315 313 313 313 313 313 314 313 314 314 314 313 312 312 311 310 310 310 309 310 310 310 310 310
331 329 327 326 326 326 325 325 325 327 329 328 326 323 322 321 321 321 322 323 323 322 320 319 317 319 318 317 318 317 316 316 317 317 317 316 314 313 312 311 311 311 310 310 310 309 308 309 309 309 309 310
331 330 328 326 326 324 325 325 326 328 330 330 329 327 325 323 324 325 326 324 321 322 324 324 323 324 324 322 320 320 319 318 318 317 317 316 314 312 310 311 311 310 311 310 309 310 310 310 308 309 309 309
331 331 330 329 328 326 326 325 324 327 329 330 330 329 329 328 327 326 327 327 325 325 323 322 323 323 322 321 321 320 319 319 318 316 316 315 316 311 311 312 312 311 310 310 310 310 311 310 309 310 309 307
329 330 330 329 328 328 328 329 327 328 329 328 328 330 330 329 328 327 326 327 327 326 324 322 319 318 317 319 320 319 317 315 315 316 316 315 313 313 311 309 311 312 311 311 310 309 310 310 309 309 308 308
327 328 328 329 329 328 328 329 330 329 329 329 328 327 327 327 326 325 323 323 323 324 322 323 321 319 320 320 317 317 318 318 317 317 315 314 313 312 314 314 312 312 312 310 311 311 309 310 310 309 308 309
327 328 329 328 328 326 326 327 328 328 328 330 329 327 327 326 325 324 322 321 323 323 324 323 321 322 323 322 320 318 317 316 314 314 314 315 317 316 316 315 314 314 312 309 307 309 311 311 312 312 311 310
327 326 324 326 320 325 319 321 326 326 325 327 327 327 326 324 324 323 324 325 325 325 325 324 322 323 324 322 320 319 318 316 314 316 317 317 317 317 313 313 315 315 313 312 308 309 308 307 308 310 306 304
327 325 321 321 320 321 323 320 316 319 320 321 323 323 323 322 323 323 325 326 326 326 327 326 325 323 321 322 321 321 321 320 318 316 318 317 316 315 315 312 312 310 310 311 310 308 306 307 307 305 301 301
323 321 318 318 316 316 317 316 316 318 317 318 323 324 323 326 325 325 326 327 327 325 327 327 327 326 325 323 322 320 320 321 321 320 319 318 316 316 316 315 311 310 311 311 313 312 308 306 303 304 308 310
323 322 322 319 319 317 313 315 313 314 316 314 319 323 322 324 325 326 326 326 327 327 325 326 326 325 324 324 323 321 321 320 319 318 317 318 317 316 316 315 314 313 311 311 311 312 313 311 308 308 309 307
321 320 321 321 320 318 317 317 311 310 312 316 312 314 316 318 320 321 322 321 322 322 323 325 325 324 324 321 320 318 320 320 320 320 319 317 317 317 315 314 312 312 313 310 310 311 311 309 309 310 306 304
Wind_Speed
11 11 10 8 8 9 11 11 11 12 12 12 11 10 10 10 9 11 12 11 12 13 11 11 10 11 11 11 11 10 9 10 10 10 10 9 8 7 7 8 8 8 9 8 8 8 7 8 8 8 5 3
11 10 9 9 9 10 10 9 9 10 11 10 9 9 8 9 10 11 11 10 11 12 12 12 12 12 11 10 9 9 9 9 9 8 8 8 7 6 6 6 6 7 7 7 6 6 7 7 7 7 6 3
8 10 9 9 9 11 10 9 10 10 10 9 8 8 9 9 10 10 10 9 8 8 9 9 8 10 9 9 9 9 9 8 8 7 7 6 5 5 4 4 4 4 4 4 4 4 5 6 6 5 4 2
5 8 9 8 9 10 10 10 10 10 9 9 9 9 9 9 8 8 7 9 7 8 8 8 6 6 7 9 8 8 8 8 7 6 6 5 4 3 3 3 3 3 3 3 3 4 4 5 5 4 2 1
6 7 9 7 8 9 9 9 9 9 9 8 8 7 8 7 5 5 4 5 4 6 4 7 7 7 7 7 7 6 7 6 6 5 4 4 3 2 3 3 4 5 6 5 4 4 5 5 3 3 3 2
5 6 6 5 4 4 6 7 7 6 4 5 4 6 5 3 3 4 4 4 5 3 4 4 6 6 6 6 5 6 6 5 4 4 3 2 1 2 2 2 2 3 4 6 6 6 6 4 3 3 3 2
4 6 5 4 4 4 5 5 4 4 4 3 4 3 3 3 2 2 3 3 4 3 4 4 6 6 5 5 5 5 5 4 3 1 2 0 0 1 2 1 2 3 3 4 5 3 3 3 4 3 4 2
4 4 4 4 4 4 4 4 4 3 3 3 3 4 4 3 3 2 2 4 5 5 3 3 5 5 5 5 6 6 4 4 2 2 1 1 1 1 1 2 2 3 4 5 3 3 3 3 4 3 3 2
5 4 4 4 4 4 5 4 4 4 3 3 3 3 4 3 3 3 2 3 3 3 3 3 2 3 3 3 3 4 2 1 1 1 1 2 2 1 1 1 3 3 4 3 2 2 3 3 3 3 3 2
6 6 5 5 4 4 4 4 4 4 4 3 3 3 3 3 4 4 3 3 3 3 3 3 3 3 3 3 3 2 3 2 1 2 2 2 3 3 1 3 3 3 3 2 1 2 3 3 3 3 3 2
6 6 5 5 5 5 5 4 4 5 4 5 3 3 4 5 5 4 4 4 3 4 3 5 3 4 3 4 4 3 3 4 3 3 3 3 4 3 3 3 2 2 3 3 2 3 3 3 4 4 4 4
6 6 5 6 6 5 6 5 5 5 5 4 5 4 5 6 6 6 5 5 5 5 3 4 4 3 3 3 4 3 4 4 3 4 4 3 3 3 3 3 3 3 3 2 1 3 4 4 5 5 4 4
7 6 6 5 5 6 5 5 6 6 5 5 5 4 5 5 6 5 6 5 6 4 5 4 4 4 5 4 5 3 5 4 4 4 5 5 5 4 4 3 4 3 4 3 3 3 4 4 4 4 5 5
6 6 6 6 6 6 6 6 6 4 5 5 5 5 4 6 6 6 6 6 5 5 5 5 4 5 5 5 5 4 5 5 4 5 4 4 3 3 4 3 5 3 4 4 4 4 4 5 5 5 5 5
7 6 7 7 6 6 6 6 6 5 6 5 5 6 5 5 5 6 5 5 5 5 5 5 5 5 5 5 5 5 6 3 5 4 5 4 4 4 4 6 3 2 5 5 5 4 4 6 4 5 5 5
6 7 7 7 6 6 7 5 6 6 6 6 6 4 4 4 4 4 5 5 4 5 4 5 5 5 4 6 5 5 5 5 4 4 4 3 2 3 2 3 3 1 2 5 6 4 5 5 5 6 6 5
6 6 6 6 7 6 7 7 6 6 6 6 5 4 4 5 4 4 5 5 5 5 4 3 4 3 4 5 4 4 4 4 3 1 2 2 0 1 1 2 4 2 2 4 6 5 5 4 6 6 5 6
6 6 6 6 6 6 6 6 6 6 6 6 6 5 4 5 4 4 4 3 2 3 3 3 3 3 3 3 2 2 2 3 3 3 2 3 2 3 2 4 5 4 6 6 5 6 6 5 6 6 6 6
7 6 6 6 6 6 6 6 6 5 4 5 5 6 5 4 4 4 3 2 2 1 1 1 1 2 5 3 2 2 3 4 2 2 4 3 3 4 4 4 4 4 5 6 7 7 5 6 6 6 6 6
7 7 6 6 6 6 5 6 5 5 5 5 5 6 5 4 4 4 3 3 3 1 1 0 1 3 3 3 1 2 2 2 4 4 4 2 2 4 5 4 5 3 6 6 7 6 6 6 6 6 6 7
7 7 6 6 6 5 5 6 5 5 4 4 4 5 5 4 4 3 3 3 3 2 1 0 1 3 2 2 2 2 2 3 4 4 4 4 4 3 5 4 5 7 6 6 6 6 5 7 6 6 7 7
8 7 6 6 6 5 5 5 6 5 5 5 5 4 3 4 5 5 5 4 3 1 2 2 2 3 3 3 2 3 2 4 1 2 2 4 3 3 3 5 6 7 7 5 5 6 7 8 6 7 7 7
7 7 6 5 6 5 5 4 4 5 5 5 5 4 4 4 4 5 5 5 5 4 5 4 4 4 4 2 2 1 2 2 1 2 2 5 6 3 5 5 5 6 5 6 6 6 9 8 8 7 7 7
7 6 6 6 4 5 6 5 5 4 5 4 4 6 7 7 6 4 5 5 7 7 7 6 5 3 3 3 2 2 2 4 4 5 5 6 5 6 4 3 6 5 5 6 6 9 9 8 8 8 8 7
8 8 6 6 8 8 6 6 5 5 5 5 4 3 3 4 5 5 5 6 3 4 4 4 3 4 4 3 2 3 5 6 5 5 4 3 1 3 5 5 3 4 3 4 7 6 7 8 6 8 8 9
8 7 8 8 8 5 4 5 5 5 4 5 5 4 3 3 3 4 4 4 3 3 3 4 4 4 4 4 5 5 4 3 4 4 4 3 4 4 5 5 2 3 2 2 4 7 7 7 7 8 8 8
9 6 5 5 3 5 2 1 4 5 4 4 5 5 5 4 5 4 4 4 4 4 4 4 4 5 6 5 4 4 4 5 5 5 5 5 4 5 3 4 4 5 5 5 4 4 5 5 7 4 3 3
7 6 5 4 4 4 5 4 3 3 2 2 1 3 3 3 4 4 4 4 5 5 5 5 5 6 4 5 4 7 7 5 6 4 4 5 6 4 4 3 4 2 5 5 3 5 1 5 4 10 2 5
6 5 4 3 2 2 1 2 2 2 2 2 3 2 2 5 4 4 6 5 5 6 7 7 8 4 3 3 4 2 3 5 5 4 5 5 4 5 5 5 2 2 2 4 3 3 3 4 1 3 9 9
8 8 8 6 5 5 3 4 3 4 5 4 4 5 2 1 1 2 2 2 4 4 3 3 3 2 2 1 2 2 2 3 2 3 3 4 3 4 4 3 5 4 2 3 3 4 4 3 7 10 6 6
8 7 7 9 8 6 6 6 3 3 2 3 2 3 4 3 3 2 2 1 2 2 2 2 3 4 4 2 1 2 3 3 2 3 2 2 1 3 2 2 3 4 4 2 3 5 4 4 5 6 6 5
Wind_Direction
93 92 90 87 97 113 111 113 115 118 113 105 106 100 87 81 84 92 85 81 81 74 82 95 99 100 93 88 87 90 92 85 85 85 85 84 77 68 60 51 45 44 45 44 37 29 20 26 41 47 53 58
99 97 96 97 104 110 110 114 113 112 105 103 97 89 86 85 86 90 89 82 80 83 80 85 90 89 90 89 90 90 86 87 85 84 83 85 80 73 60 47 47 44 41 42 37 28 23 20 20 42 53 61
105 106 106 107 112 118 121 116 114 110 111 110 104 101 97 92 89 89 88 84 79 77 86 85 91 98 98 96 95 96 94 93 90 88 88 80 81 76 69 62 51 44 39 31 33 18 17 18 7 24 62 30
118 114 114 113 116 123 127 127 125 126 122 119 118 115 107 104 98 92 92 90 80 82 84 89 91 96 100 103 101 98 98 96 97 93 89 87 77 65 37 24 23 3 3 15 13 8 16 9 4 9 48 84
125 124 116 115 123 128 131 134 136 133 129 128 129 122 116 107 106 111 110 99 102 88 89 94 92 94 100 103 107 103 102 98 100 102 92 81 69 44 22 6 352 348 347 338 334 343 0 355 354 337 333 85
134 136 133 131 132 129 131 135 137 138 144 142 135 124 115 110 119 124 124 126 120 114 108 97 110 110 112 113 110 118 117 116 109 109 110 89 78 357 30 5 355 338 332 328 330 348 340 335 320 315 322 351
147 141 136 145 142 138 143 148 147 156 151 147 138 140 132 131 125 132 139 142 141 138 136 138 131 123 118 118 120 119 123 130 146 165 134 159 21 60 7 345 335 325 304 301 324 346 331 316 307 304 308 313
156 159 158 156 154 147 153 154 164 166 165 161 157 158 159 152 151 143 174 150 141 132 136 144 135 136 131 132 134 138 136 153 183 201 302 355 10 350 342 330 292 291 288 285 291 291 279 282 289 306 306 302
171 168 161 165 162 161 162 170 175 180 182 176 179 177 171 167 151 152 171 157 149 145 147 142 147 145 148 147 156 145 158 188 232 326 298 319 335 227 230 283 280 294 292 293 298 297 299 279 275 285 290 292
171 161 169 172 176 167 176 175 185 190 194 196 195 184 173 149 147 157 163 184 172 176 167 173 184 194 183 178 189 181 189 216 220 280 269 277 290 275 198 226 251 245 238 268 294 313 324 312 311 287 262 255
165 179 178 175 173 171 185 184 188 204 207 207 195 180 158 150 161 163 174 192 186 191 190 194 200 207 197 201 209 217 195 214 230 241 263 261 263 287 311 290 267 254 247 231 264 282 294 298 290 297 300 297
178 181 175 182 174 187 181 175 196 204 209 207 193 183 174 160 165 169 182 193 187 204 191 208 205 212 215 218 226 214 215 214 231 245 257 260 265 280 277 275 277 266 263 294 291 304 293 294 293 291 294 295
183 179 179 174 179 190 184 187 196 200 201 207 196 190 174 159 169 186 185 183 201 186 203 214 200 204 219 220 232 198 227 217 221 228 233 238 244 261 270 262 271 293 298 293 291 270 283 283 288 291 287 288
177 182 179 182 188 192 179 201 197 189 192 209 186 194 195 176 175 184 188 196 193 184 210 217 209 204 223 214 227 204 220 219 210 217 227 237 253 258 259 265 263 276 284 291 281 279 273 281 274 277 278 279
183 178 183 187 188 179 191 201 188 183 197 206 202 199 193 196 183 180 194 202 193 200 206 210 207 215 215 226 224 211 229 210 209 213 218 223 229 233 243 252 271 291 287 288 290 277 274 268 279 276 272 273
184 183 181 186 175 183 193 189 181 186 189 199 212 207 199 195 196 173 190 196 210 207 213 208 207 213 202 223 221 211 224 219 219 213 228 243 254 265 274 291 312 331 285 286 282 302 281 279 280 270 271 272
184 183 178 173 178 182 183 187 172 173 186 193 204 206 206 204 192 191 174 188 195 208 222 228 218 214 214 223 215 209 221 223 225 239 277 283 6 325 343 324 293 314 282 280 285 293 275 279 277 269 274 270
176 186 183 178 178 184 185 196 187 181 181 180 190 200 205 208 206 192 191 165 162 175 202 230 235 239 254 256 244 229 218 228 220 230 246 257 323 295 313 279 278 309 303 289 286 280 276 285 273 281 280 268
180 184 180 182 181 187 187 196 197 197 180 166 179 182 204 203 206 208 185 166 137 110 102 157 228 240 242 256 272 257 233 219 230 223 236 241 256 279 286 275 286 291 283 284 286 282 293 282 279 279 268 273
177 182 186 184 187 183 187 188 195 194 195 182 160 173 182 202 199 197 162 136 130 114 120 136 260 261 286 281 261 236 251 202 222 225 239 255 243 278 274 287 287 274 269 268 273 277 283 276 274 277 278 273
178 177 186 192 191 191 178 185 196 201 194 187 172 159 171 183 184 177 159 143 130 120 123 130 281 275 258 241 213 233 225 223 228 209 219 241 225 221 268 288 275 278 265 270 267 276 278 273 273 273 270 270
177 181 180 189 194 192 189 190 189 199 193 197 194 176 189 184 183 178 174 163 151 153 200 214 226 253 261 245 221 224 208 237 277 302 264 263 258 212 216 253 260 267 278 281 286 284 274 272 269 264 267 265
169 171 180 181 189 195 202 201 203 192 199 197 183 188 208 214 209 203 205 198 194 215 239 250 245 236 249 257 253 212 207 234 243 265 253 233 257 234 220 237 257 264 278 286 285 281 274 275 272 271 265 266
168 170 180 188 194 204 206 198 195 201 199 211 216 197 195 195 195 201 207 210 210 206 209 218 229 226 237 226 199 235 255 247 225 229 237 242 238 267 286 248 255 263 273 275 273 272 275 266 267 269 264 264
175 179 185 192 195 203 195 195 191 197 200 195 201 220 216 212 212 208 211 217 211 216 218 227 235 241 272 269 239 224 235 239 240 236 240 281 241 250 275 282 247 253 223 281 291 272 267 283 264 257 264 261
189 190 196 193 197 175 169 180 191 205 208 198 197 203 208 213 207 201 200 210 209 217 210 229 245 248 251 259 245 232 244 260 256 266 255 235 274 209 243 268 239 238 106 278 250 302 310 289 270 255 252 254
195 194 190 179 176 166 170 223 189 190 191 188 198 206 207 208 205 202 210 209 211 214 219 223 226 227 225 240 237 254 258 248 255 243 249 234 234 279 230 239 257 242 176 254 254 261 296 294 327 320 281 293
191 181 179 183 161 174 163 187 190 190 197 207 220 243 222 212 208 207 213 213 211 212 219 218 226 235 212 219 212 223 236 249 254 247 248 236 233 222 283 238 271 218 203 217 284 315 219 300 339 316 291 314
169 152 154 133 77 80 82 42 86 151 226 207 211 242 200 218 201 206 215 212 206 210 218 215 225 235 240 211 242 245 244 246 254 250 247 251 242 211 233 272 270 311 201 236 223 243 321 315 299 247 301 326
166 174 169 165 172 178 180 199 157 188 207 214 206 212 201 191 218 228 241 225 217 244 278 292 298 267 242 257 313 250 251 285 309 275 290 288 259 265 255 267 306 302 275 225 232 226 223 217 270 302 318 344
168 173 179 182 188 184 183 184 235 225 218 173 126 95 85 93 75 87 121 88 107 67 55 58 52 48 43 40 46 57 64 24 352 348 334 326 319 276 294 261 261 276 297 345 257 228 252 283 282 293 313 302